Regional Weather Roundup
Issued by NWS

Home | Current Version | Previous Version | Graphics & Text | Print | Product List | Glossary On
Versions: 1 2 3 4 5 6 7 8 9 10 11 12 13 14 15 16 17 18 19 20 21 22 23 24 25 26 27 28 29 30 31 32 33 34 35 36 37 38 39 40 41 42 43 44 45 46 47 48 49 50
000
ASUS45 KABQ 240201
RWRNM
NEW MEXICO REGIONAL WEATHER ROUNDUP
NATIONAL WEATHER SERVICE ALBUQUERQUE NM
800 PM MDT THU MAR 23 2017

NOTE: "FAIR" MEANS FEW OR NO CLOUDS BELOW 12,000 FEET AGL WITH NO
       SIGNIFICANT WEATHER OR OBSTRUCTIONS TO VISION.

      THIS PRODUCT IS RELEASED AS TWO VERSIONS.  ONE VERSION NEAR
      THE TOP OF THE HOUR CONTAINING PRELIMINARY DATA FROM ALBUQUERQUE
      AND OTHER STATIONS.  A FINAL VERSION WITH ADDITIONAL DATA IS
      ISSUED ABOUT 10 MINUTES AFTER THE HOUR.

NMZ501-503-504-510>518-240300-
NORTHWEST PLATEAU/NORTHCENTRAL MOUNTAINS

CITY           SKY/WX    TMP DP  RH WIND       PRES   REMARKS
FARMINGTON     MOCLDY    42  32  67 W12       29.80S
LOS ALAMOS     LGT SNOW  33  33 100 SW5       29.78F WCI  28
SANTA FE       FLURRIES  33  33 100 W10       29.77F WCI  25
TAOS             N/A     34  27  75 SW6       29.73F WCI  29
ANGEL FIRE     FLURRIES  31  27  86 W8G21     29.68F WCI  23

$$
NMZ402-403-502-505>509-240300-
WESTCENTRAL MOUNTAINS/SOUTHWEST MOUNTAINS

CITY           SKY/WX    TMP DP  RH WIND       PRES   REMARKS
GALLUP         LGT SNOW  33  32  96 W14       29.92R FOG     WCI  23
GRANTS         MOCLDY    36  28  73 N3        29.91R
SILVER CITY    FAIR      39  29  67 NW18      30.03R WCI  30

$$
NMZ407-409-411-412-240300-
SOUTHERN DESERTS

CITY           SKY/WX    TMP DP  RH WIND       PRES   REMARKS
DEMING         FAIR      52  27  38 W14       30.01R
LAS CRUCES     FAIR      51  23  33 W25G36    29.98S
ALAMOGORDO     FAIR      55  19  24 W24G35    29.93R HAZE
T OR C         FAIR      47  26  44 W12G20    29.96R

$$
NMZ519>523-240300-
CENTRAL VALLEYS/CENTRAL HIGHLANDS

CITY           SKY/WX    TMP DP  RH WIND       PRES   REMARKS
ALBUQUERQUE    MOCLDY    46  27  47 W18G29    29.83R
DOUBLE EAGLE   MOCLDY    41  27  56 W29G38    29.82S
MORIARTY ARPT  FAIR      38  34  84 W15G22    29.82S WCI  30
CLINES CORNERS FLURRIES  34  31  88 W32G40    29.79F WCI  20
BELEN          FAIR      45  25  44 W32G38    29.85R
SOCORRO        FAIR      50  21  32 W16G23    29.88R

$$
NMZ524>526-539-540-240300-
SOUTHCENTRAL MOUNTAINS

CITY           SKY/WX    TMP DP  RH WIND       PRES   REMARKS
RUIDOSO        NOT AVBL

$$
NMZ527>531-240300-
NORTHEAST HIGHLANDS/NORTHEAST PLAINS

CITY           SKY/WX    TMP DP  RH WIND       PRES   REMARKS
LAS VEGAS      FAIR      38  25  59 SW29G39   29.63F WCI  26
RATON          FAIR      50  25  37 W12       29.56F
CLAYTON        FAIR      64  27  24 SW29G37   29.55R

$$
NMZ532>537-240300-
EASTCENTRAL PLAINS

CITY           SKY/WX    TMP DP  RH WIND       PRES   REMARKS
SANTA ROSA     FAIR      47  32  55 W26G37    29.67R
TUCUMCARI      MOCLDY    57  30  35 W24G39    29.60R
CANNON AFB     NOT AVBL
CLOVIS AIRPORT FAIR      57  32  38 W23G37    29.70R

$$
NMZ028-029-538-240300-
SOUTHEAST PLAINS

CITY           SKY/WX    TMP DP  RH WIND       PRES   REMARKS
ROSWELL        FAIR      63  17  17 W29G43    29.76R
ARTESIA        FAIR      63  21  20 W36G48    29.77R
CARLSBAD       CLOUDY    65  21  18 MISG      29.74R
HOBBS          FAIR      68  27  21 W15G35    29.80R


$$




USA.gov is the U.S. government's official web portal to all federal, state and local government web resources and services.